When you browse on this site, cookies collect data to enhance your experience and personalize the content and advertising you see.
Visit our Privacy Policy to learn more. By continuing to use the site, you agree to this use of cookies and data.
  • In Österreich
  • Länderverzeichnis
  • Für 7 Tage
  • Wassertemperatur
  • Satellitenkarten
  • Wetterkarte
  • News
  • Widgets
  • user-avatar
    Anmelden

    Stündliche Wetter Dargocice

    Heute, 19 Dezember, Mittwoch

    Zeit Temperatur Niederschläge Wind Luftdruck Luftfeuchtigkeit
    00:00 -1°C° 0 mm 4 m/S 762 mmHg 96%
    01:00 -1°C° 0 mm 4 m/S 762 mmHg 96%
    02:00 -1°C° 0 mm 4 m/S 762 mmHg 95%
    03:00 -1°C° 0 mm 5 m/S 762 mmHg 95%
    04:00 -1°C° 0 mm 5 m/S 761 mmHg 94%
    05:00 -1°C° 0 mm 5 m/S 761 mmHg 93%
    06:00 -3°C° 0 mm 6 m/S 761 mmHg 91%
    07:00 -3°C° 0 mm 6 m/S 760 mmHg 90%
    08:00 -3°C° 0 mm 7 m/S 760 mmHg 85%
    09:00 -2°C° 0 mm 7 m/S 760 mmHg 80%
    10:00 -2°C° 0 mm 8 m/S 759 mmHg 75%
    11:00 -2°C° 0 mm 8 m/S 759 mmHg 75%
    12:00 -2°C° 0 mm 7 m/S 759 mmHg 75%
    13:00 -2°C° 0 mm 7 m/S 758 mmHg 75%
    14:00 -2°C° 0 mm 7 m/S 758 mmHg 78%
    15:00 -2°C° 0 mm 7 m/S 758 mmHg 80%
    16:00 -3°C° 0 mm 6 m/S 757 mmHg 82%
    17:00 -3°C° 0 mm 6 m/S 757 mmHg 82%
    18:00 -3°C° 0 mm 6 m/S 757 mmHg 82%
    19:00 -3°C° 0 mm 6 m/S 757 mmHg 82%
    20:00 -1°C° 0 mm 5 m/S 757 mmHg 82%
    21:00 -1°C° 0 mm 5 m/S 757 mmHg 82%
    22:00 -1°C° 0 mm 5 m/S 757 mmHg 82%
    23:00 -1°C° 0 mm 5 m/S 756 mmHg 83%

    Morgen, 20 Dezember, Donnerstag

    Zeit Temperatur Niederschläge Wind Luftdruck Luftfeuchtigkeit
    00:00 -1°C° 0 mm 5 m/S 756 mmHg 84%
    01:00 -1°C° 0 mm 5 m/S 756 mmHg 85%
    02:00 -1°C° 0.1 mm 4 m/S 756 mmHg 86%
    03:00 -1°C° 0.1 mm 4 m/S 756 mmHg 88%
    04:00 -1°C° 0.1 mm 4 m/S 756 mmHg 89%
    05:00 -1°C° 0.1 mm 4 m/S 756 mmHg 91%
    06:00 -1°C° 0.1 mm 4 m/S 756 mmHg 92%
    07:00 -2°C° 0.1 mm 4 m/S 756 mmHg 93%
    08:00 -1°C° 0.2 mm 4 m/S 756 mmHg 93%
    09:00 -1°C° 0.2 mm 4 m/S 756 mmHg 93%
    10:00 -1°C° 0.2 mm 4 m/S 756 mmHg 93%
    11:00 -1°C° 0.1 mm 4 m/S 756 mmHg 92%
    12:00 -1°C° 0.1 mm 4 m/S 756 mmHg 92%
    13:00 0°C° 0.1 mm 4 m/S 755 mmHg 91%
    14:00 0°C° 0 mm 4 m/S 755 mmHg 92%
    15:00 -1°C° 0 mm 4 m/S 755 mmHg 93%
    16:00 0°C° 0 mm 3 m/S 755 mmHg 94%
    17:00 -1°C° 0 mm 4 m/S 755 mmHg 95%
    18:00 -1°C° 0 mm 4 m/S 755 mmHg 95%
    19:00 -1°C° 0 mm 4 m/S 755 mmHg 95%
    20:00 0°C° 0 mm 4 m/S 755 mmHg 95%
    21:00 0°C° 0 mm 4 m/S 755 mmHg 95%
    22:00 0°C° 0 mm 4 m/S 755 mmHg 96%
    23:00 0°C° 0.1 mm 4 m/S 754 mmHg 96%

    übermorgen, 21 Dezember, Freitag

    Zeit Temperatur Niederschläge Wind Luftdruck Luftfeuchtigkeit
    00:00 0°C° 0.1 mm 4 m/S 754 mmHg 96%
    01:00 0°C° 0.1 mm 4 m/S 754 mmHg 96%
    02:00 0°C° 0 mm 4 m/S 754 mmHg 96%
    03:00 0°C° 0 mm 4 m/S 753 mmHg 96%
    04:00 0°C° 0 mm 4 m/S 753 mmHg 96%
    05:00 0°C° 0.1 mm 4 m/S 753 mmHg 96%
    06:00 0°C° 0.1 mm 5 m/S 752 mmHg 95%
    07:00 +1°C° 0.1 mm 5 m/S 752 mmHg 95%
    08:00 +1°C° 0 mm 5 m/S 752 mmHg 95%
    09:00 +1°C° 0 mm 5 m/S 751 mmHg 94%
    10:00 +1°C° 0 mm 5 m/S 751 mmHg 94%
    11:00 +1°C° 0 mm 5 m/S 751 mmHg 94%
    12:00 +1°C° 0 mm 5 m/S 750 mmHg 93%
    13:00 +2°C° 0 mm 5 m/S 749 mmHg 93%
    14:00 +2°C° 0 mm 5 m/S 749 mmHg 93%
    15:00 +1°C° 0 mm 5 m/S 748 mmHg 93%
    16:00 +1°C° 0 mm 5 m/S 748 mmHg 94%
    17:00 +1°C° 0.1 mm 5 m/S 747 mmHg 94%
    18:00 +1°C° 0.1 mm 5 m/S 747 mmHg 94%
    19:00 +1°C° 0.1 mm 5 m/S 746 mmHg 94%
    20:00 +1°C° 0.2 mm 5 m/S 745 mmHg 94%
    21:00 +1°C° 0.2 mm 6 m/S 744 mmHg 93%
    22:00 +1°C° 0.2 mm 6 m/S 743 mmHg 93%
    23:00 +1°C° 1 mm 5 m/S 743 mmHg 93%

    22 Dezember, Samstag

    Zeit Temperatur Niederschläge Wind Luftdruck Luftfeuchtigkeit
    00:00 +1°C° 1 mm 5 m/S 743 mmHg 93%
    01:00 +1°C° 1 mm 4 m/S 742 mmHg 93%
    02:00 +2°C° 0.6 mm 5 m/S 742 mmHg 92%
    03:00 +2°C° 0.6 mm 5 m/S 742 mmHg 92%
    04:00 +3°C° 0.6 mm 5 m/S 742 mmHg 91%
    05:00 +3°C° 0.5 mm 5 m/S 742 mmHg 90%
    06:00 +5°C° 0.5 mm 5 m/S 742 mmHg 89%
    07:00 +5°C° 0.5 mm 5 m/S 742 mmHg 88%
    08:00 +5°C° 0.4 mm 5 m/S 742 mmHg 87%
    09:00 +5°C° 0.4 mm 5 m/S 742 mmHg 87%
    10:00 +6°C° 0.4 mm 5 m/S 742 mmHg 86%
    11:00 +6°C° 0.4 mm 5 m/S 742 mmHg 86%
    12:00 +6°C° 0.4 mm 5 m/S 742 mmHg 86%
    13:00 +6°C° 0.4 mm 5 m/S 742 mmHg 85%
    14:00 +5°C° 0.6 mm 5 m/S 743 mmHg 87%
    15:00 +5°C° 0.6 mm 5 m/S 743 mmHg 89%
    16:00 +3°C° 0.6 mm 6 m/S 744 mmHg 90%
    17:00 +3°C° 0.2 mm 6 m/S 745 mmHg 89%
    18:00 +3°C° 0.2 mm 7 m/S 746 mmHg 88%
    19:00 +2°C° 0.2 mm 7 m/S 747 mmHg 87%
    20:00 +2°C° 0.1 mm 6 m/S 748 mmHg 87%
    21:00 +2°C° 0.1 mm 6 m/S 750 mmHg 86%
    22:00 +2°C° 0.1 mm 5 m/S 751 mmHg 86%
    23:00 +3°C° 0.1 mm 4 m/S 752 mmHg 87%

    23 Dezember, Sonntag

    Zeit Temperatur Niederschläge Wind Luftdruck Luftfeuchtigkeit
    00:00 +1°C° 0.1 mm 4 m/S 753 mmHg 89%
    01:00 +2°C° 0.1 mm 3 m/S 753 mmHg 90%
    02:00 +2°C° 0 mm 3 m/S 754 mmHg 91%
    03:00 +2°C° 0 mm 2 m/S 754 mmHg 91%
    04:00 +3°C° 0 mm 1 m/S 754 mmHg 92%
    05:00 +3°C° 0 mm 1 m/S 755 mmHg 92%
    06:00 +2°C° 0 mm 1 m/S 755 mmHg 92%
    07:00 +2°C° 0 mm 1 m/S 755 mmHg 92%
    08:00 +2°C° 0 mm 2 m/S 755 mmHg 92%
    09:00 +2°C° 0 mm 2 m/S 755 mmHg 92%
    10:00 +1°C° 0 mm 3 m/S 756 mmHg 92%
    11:00 +1°C° 0.5 mm 3 m/S 756 mmHg 92%
    12:00 +2°C° 0.5 mm 3 m/S 755 mmHg 92%
    13:00 +2°C° 0.5 mm 3 m/S 755 mmHg 92%
    14:00 +3°C° 0.5 mm 4 m/S 755 mmHg 92%
    15:00 +3°C° 0.5 mm 4 m/S 755 mmHg 92%
    16:00 +3°C° 0.5 mm 4 m/S 755 mmHg 92%
    17:00 +2°C° 0.7 mm 5 m/S 755 mmHg 91%
    18:00 +2°C° 0.7 mm 5 m/S 755 mmHg 91%
    19:00 +2°C° 0.7 mm 5 m/S 755 mmHg 90%
    20:00 +2°C° 0.5 mm 6 m/S 755 mmHg 90%
    21:00 +2°C° 0.5 mm 6 m/S 755 mmHg 91%
    22:00 +2°C° 0.5 mm 7 m/S 755 mmHg 91%
    23:00 +2°C° 0.3 mm 7 m/S 755 mmHg 90%

    24 Dezember, Montag

    Zeit Temperatur Niederschläge Wind Luftdruck Luftfeuchtigkeit
    00:00 +2°C° 0.3 mm 7 m/S 755 mmHg 89%
    01:00 +2°C° 0.3 mm 7 m/S 755 mmHg 88%
    02:00 +2°C° 0.1 mm 7 m/S 756 mmHg 88%
    03:00 +2°C° 0.1 mm 7 m/S 756 mmHg 87%
    04:00 +2°C° 0.1 mm 7 m/S 756 mmHg 86%
    05:00 +2°C° 0 mm 6 m/S 757 mmHg 86%
    06:00 +2°C° 0 mm 5 m/S 758 mmHg 86%
    07:00 +1°C° 0 mm 4 m/S 758 mmHg 87%
    08:00 +1°C° 0 mm 4 m/S 759 mmHg 86%
    09:00 +1°C° 0 mm 4 m/S 760 mmHg 86%
    10:00 +1°C° 0 mm 4 m/S 760 mmHg 86%
    11:00 +3°C° 0 mm 4 m/S 761 mmHg 85%
    12:00 +2°C° 0 mm 5 m/S 761 mmHg 84%
    13:00 +2°C° 0 mm 5 m/S 761 mmHg 83%
    14:00 +2°C° 0 mm 5 m/S 761 mmHg 84%
    15:00 +2°C° 0 mm 5 m/S 762 mmHg 84%
    16:00 +1°C° 0 mm 5 m/S 762 mmHg 84%
    17:00 +1°C° 0 mm 4 m/S 762 mmHg 84%
    18:00 +1°C° 0 mm 4 m/S 762 mmHg 84%
    19:00 +1°C° 0 mm 4 m/S 763 mmHg 84%
    20:00 +1°C° 0 mm 3 m/S 763 mmHg 85%
    21:00 +1°C° 0 mm 3 m/S 763 mmHg 87%
    22:00 +1°C° 0 mm 3 m/S 763 mmHg 89%
    23:00 +1°C° 0 mm 3 m/S 763 mmHg 89%
    Mehr zeigen